Tracking 30995 objects as of 5-Jul-2025
HD Live streaming from Space Station
objects crossing your sky now

STARLINK-5031

Track STARLINK-5031 now!
10-day predictions
STARLINK-5031 is classified as:


NORAD ID: 53889
Int'l Code: 2022-119D
Perigee: 546.1 km
Apogee: 547.7 km
Inclination: 53.2 °
Period: 95.4 minutes
Semi major axis: 6917 km
RCS: Unknown
Launch date: September 24, 2022
Source: United States (US)
Launch site: AIR FORCE EASTERN TEST RANGE (AFETR)
Your satellite tracking list
ELYUSIUM/LOWER FREE FLYE
Track 1 satellite(s)




NASA's NSSDC Master Catalog

Two Line Element Set (TLE):
1 53889U 22119D   25186.68845944  .00000240  00000-0  33166-4 0  9997
2 53889  53.2183 353.1005 0001178  89.7034 270.4093 15.08836686153973
Source of the keplerian elements: AFSPC